Location: Unspecified
(0.0000°N, 0.0000°E)
Time: 20:00:01
(UTC+00:00)

ISS - Pass Details

Date: 09 May 2026
Orbit: 414 x 424 km, 51.6° (Epoch: 10 May)

Event Time Altitude Azimuth Distance (km) Brightness Sun altitude
Rises 04:40:06 0° 358° (N) 2,350 0.3 -18.2°
Reaches altitude 10° 04:43:22 10° 33° (NNE) 1,493 -0.2 -17.4°
Maximum altitude 04:44:35 12° 54° (NE) 1,405 0.0 -17.1°
Drops below altitude 10° 04:45:48 10° 75° (ENE) 1,498 0.4 -16.8°
Sets 04:49:06 0° 110° (ESE) 2,367 0.9 -16.1°
